Regional Weather Roundup
Issued by NWS

Home | Current Version | Previous Version | Graphics & Text | Print | Product List | Glossary On
Versions: 1 2 3 4 5 6 7 8 9 10 11 12 13 14 15 16 17 18 19 20 21 22 23 24 25 26 27 28 29 30 31 32 33 34 35 36 37 38 39 40 41 42 43 44 45 46 47 48 49 50
000
ASUS43 KMKX 231820
RWRWI

WISCONSIN REGIONAL WEATHER ROUNDUP
NATIONAL WEATHER SERVICE MILWAUKEE/SULLIVAN WI
100 PM CDT MON APR 23 2018

NOTE: "FAIR" INDICATES FEW OR NO CLOUDS BELOW 12,000 FEET WITH NO
SIGNIFICANT WEATHER AND/OR OBSTRUCTIONS TO VISIBILITY.

WIZ001-002-006>008-014>016-023>028-231900-
NORTHWEST WISCONSIN

CITY           SKY/WX    TMP DP  RH WIND       PRES   REMARKS
SUPERIOR ARPT  FAIR      65  37  35 W10G16    30.17F
6HR MIN TEMP:  30; 6HR MAX TEMP:  64;

ASHLAND        FAIR      62  33  33 MISG      30.19F
6HR MIN TEMP:  39; 6HR MAX TEMP:  63;

HAYWARD        FAIR      62  34  35 SW7       30.20F
6HR MIN TEMP:  29; 6HR MAX TEMP:  62;

SIREN          FAIR      65  29  26 SW7       30.20F
6HR MIN TEMP:  32; 6HR MAX TEMP:  65;

CUMBERLAND     FAIR      55  28  35 CALM      30.22F
RICE LAKE      FAIR      60  29  30 SW3       30.23F
6HR MIN TEMP:  32; 6HR MAX TEMP:  60;

CHETEK         FAIR      62  31  30 NE6       30.21F
6HR MIN TEMP:  31; 6HR MAX TEMP:  62;

LADYSMITH      FAIR      62  31  30 CALM      30.22F
6HR MIN TEMP:  33; 6HR MAX TEMP:  61;

EAU CLAIRE     FAIR      63  28  26 SE3       30.20F
6HR MIN TEMP:  32; 6HR MAX TEMP:  64;

MENOMONIE      FAIR      64  27  24 W5        30.20F
6HR MIN TEMP:  33; 6HR MAX TEMP:  65;

NEW RICHMOND   FAIR      64  29  26 S5        30.21F
6HR MIN TEMP:  36; 6HR MAX TEMP:  64;

OSCEOLA        FAIR      65  31  28 S7        30.23F
6HR MIN TEMP:  33; 6HR MAX TEMP:  66;

$$

WIZ003>005-009-010-017-018-231900-
NORTH CENTRAL WISCONSIN

CITY           SKY/WX    TMP DP  RH WIND       PRES   REMARKS
MANITOWISH WTR FAIR      58  28  32 W5        30.20F
6HR MIN TEMP:  27; 6HR MAX TEMP:  58;

ARBOR VITAE    FAIR      59  27  29 CALM      30.21F
6HR MIN TEMP:  32; 6HR MAX TEMP:  59;

WOODRUFF       FAIR      59  27  29 CALM      30.21F
6HR MIN TEMP:  32; 6HR MAX TEMP:  59;

RHINELANDER    FAIR      59  26  28 W5        30.22F
6HR MIN TEMP:  31; 6HR MAX TEMP:  59;

EAGLE RIVER    FAIR      56  24  28 W5        30.20F
6HR MIN TEMP:  27; 6HR MAX TEMP:  58;

LAND O LAKES   FAIR      60  25  26 SW3       30.22F
6HR MIN TEMP:  27; 6HR MAX TEMP:  60;

PHILLIPS       FAIR      59  29  31 SW6       30.21F
6HR MIN TEMP:  29; 6HR MAX TEMP:  59;

TOMAHAWK       FAIR      58  24  26 SW3       30.23S
6HR MIN TEMP:  26; 6HR MAX TEMP:  58;

MEDFORD        FAIR      55  29  36 CALM      30.22F
6HR MIN TEMP:  32; 6HR MAX TEMP:  55;

MERRILL        FAIR      59  24  26 SW6       30.22F
6HR MIN TEMP:  28; 6HR MAX TEMP:  60;

$$

WIZ029-030-035-036-043>047-231900-
CENTRAL WISCONSIN

CITY           SKY/WX    TMP DP  RH WIND       PRES   REMARKS
WAUSAU         FAIR      60  23  24 SW3       30.20F
6HR MIN TEMP:  33; 6HR MAX TEMP:  61;

MOSINEE        MOSUNNY   61  23  23 VRB5      30.23F
MARSHFIELD     FAIR      58  27  30 VRB3      30.21F
6HR MIN TEMP:  35; 6HR MAX TEMP:  59;

STEVENS POINT  FAIR      58  26  29 E5        30.22F
6HR MIN TEMP:  28; 6HR MAX TEMP:  58;

WAUPACA        FAIR      62  23  22 CALM      30.22F
6HR MIN TEMP:  31; 6HR MAX TEMP:  62;

WAUTOMA        FAIR      62  26  25 E10       30.21F
6HR MIN TEMP:  31; 6HR MAX TEMP:  62;

WISC RAPIDS    FAIR      62  25  24 NW6       30.21F
6HR MIN TEMP:  32; 6HR MAX TEMP:  63;

CAMP DOUGLAS   SUNNY     63  30  29 SE5       30.20F
$$

WIZ011>013-019>022-031-037>040-048>050-231900-
NORTHEAST WISCONSIN

CITY           SKY/WX    TMP DP  RH WIND       PRES   REMARKS
ANTIGO         FAIR      57  28  33 N6        30.22F
6HR MIN TEMP:  33; 6HR MAX TEMP:  57;

SHAWANO        FAIR      61  24  24 CALM      30.22F
6HR MIN TEMP:  31; 6HR MAX TEMP:  60;

OCONTO         FAIR      59  25  27 S6        30.22F
6HR MIN TEMP:  30; 6HR MAX TEMP:  60;

STURGEON BAY   FAIR      58  31  35 N5        30.24F
6HR MIN TEMP:  40; 6HR MAX TEMP:  58;

GREEN BAY      FAIR      61  28  28 NW3       30.23F
6HR MIN TEMP:  35; 6HR MAX TEMP:  61;

MANITOWOC      FAIR      59  24  26 SE3       30.23F
6HR MIN TEMP:  35; 6HR MAX TEMP:  59;

APPLETON       SUNNY     61  19  20 CALM      30.21F
CLINTONVILLE   FAIR      58  20  23 CALM      30.23F
6HR MIN TEMP:  29; 6HR MAX TEMP:  57;

OSHKOSH        FAIR      59  31  34 NE6       30.21F
6HR MIN TEMP:  39; 6HR MAX TEMP:  59;

$$

WIZ032>034-041-042-053>061-231900-
SOUTHWEST WISCONSIN

CITY           SKY/WX    TMP DP  RH WIND       PRES   REMARKS
LA CROSSE      FAIR      65  28  24 W9        30.19F
6HR MIN TEMP:  40; 6HR MAX TEMP:  65;

SPARTA         FAIR      65  24  20 E6        30.20F
6HR MIN TEMP:  29; 6HR MAX TEMP:  66;

VIROQUA        FAIR      62  31  31 CALM      30.19F
6HR MIN TEMP:  41; 6HR MAX TEMP:  62;

BOSCOBEL       FAIR      67  27  22 VRB7      30.19F
6HR MIN TEMP:  34; 6HR MAX TEMP:  67;

PRAIRIE DU CHI FAIR      65  21  18 E12       30.17F
6HR MIN TEMP:  39; 6HR MAX TEMP:  65;

PLATTEVILLE    FAIR      65  28  24 NE16G22   30.17F
6HR MIN TEMP:  42; 6HR MAX TEMP:  65;

$$

WIZ056-057-062-063-064-067-068-231900-
SOUTH CENTRAL WISCONSIN

CITY           SKY/WX    TMP DP  RH WIND       PRES   REMARKS
REEDSBURG      FAIR      62  28  27 N3        30.18F
6HR MIN TEMP:  32; 6HR MAX TEMP:  62;

BARABOO/DELLS  FAIR      63  25  23 E10       30.19F
6HR MIN TEMP:  31; 6HR MAX TEMP:  63;

LONE ROCK      FAIR      63  27  25 E12       30.18F
6HR MIN TEMP:  30; 6HR MAX TEMP:  63;

MINERAL POINT  FAIR      63  23  22 NE16      30.17F
MADISON        PTSUNNY   64  28  25 NE14      30.18F
6HR MIN TEMP:  35; 6HR MAX TEMP:  64;

MIDDLETON      FAIR      64  28  25 NE15G22   30.18F
6HR MIN TEMP:  36; 6HR MAX TEMP:  64;

WATERTOWN      FAIR      62  26  25 E10G16    30.18F
6HR MIN TEMP:  35; 6HR MAX TEMP:  63;

MONROE         FAIR      64  18  16 NE14G21   30.15F
JANESVILLE     MOSUNNY   68  19  15 E9G17     30.16F
$$

WIZ051-052-058>065-066-070>072-231900-
SOUTHEAST WISCONSIN

CITY           SKY/WX    TMP DP  RH WIND       PRES   REMARKS
MILWAUKEE      PTSUNNY   55  28  35 NE13      30.20F
6HR MIN TEMP:  41; 6HR MAX TEMP:  55;

WAUKESHA       SUNNY     59  25  27 NE12      30.19F
MILWAUKEE/TIMM SUNNY     59  18  20 NE14      30.20F
RACINE         FAIR      56  31  38 N13       30.20F
6HR MIN TEMP:  42; 6HR MAX TEMP:  56;

BURLINGTON     FAIR      63  23  21 NE13G18   30.17F
6HR MIN TEMP:  34; 6HR MAX TEMP:  64;

KENOSHA        FAIR      64  28  25 NE13      30.17F
6HR MIN TEMP:  41; 6HR MAX TEMP:  64;

FOND DU LAC    FAIR      59  34  39 NE7       30.21F
6HR MIN TEMP:  34; 6HR MAX TEMP:  60;

SHEBOYGAN      FAIR      59  31  34 E8        30.21F
6HR MIN TEMP:  32; 6HR MAX TEMP:  59;

WEST BEND      FAIR      63  19  19 NE12      30.20F
JUNEAU         FAIR      61  28  27 NE8       30.21F
6HR MIN TEMP:  37; 6HR MAX TEMP:  62;

$$

LSZ147-162-231900-
LAKE SUPERIOR

STATION/POSITION TIME  TEMP    WIND        PRES    WAVE
                       AIR SEA DIR/SP/G            HT/PER
                 (UTC) (F)     (DEG/KT/KT) (MB)    (FT/S)
DEVILS ISLAND    1800   52     230/ 14/ 16 1022.1F
SAXON HARBOR     1740   52      60/  4/  6 1022.0F
$$

LMZ867-665-643>646-231900-
LAKE MICHIGAN

STATION/POSITION TIME  TEMP    WIND        PRES    WAVE
                       AIR SEA DIR/SP/G            HT/PER




USA.gov is the U.S. government's official web portal to all federal, state and local government web resources and services.